GFO

Satellite information

Favourite Embed

Satellite Type and Status

PAYLOADIN ORBIT

Key statistics

Satellite GFO at a glance.

Uptime

9949

Days in orbit

Revolutions

≈ 15.4

Per day

Orbit

SSO

Sun Synchronous Orbit

Inclination

108.0

Latest

Satellite identification and parameters

Extended collection of information and parameters for GFO.

Object identification

Identified? True

Debris? False

Object name: GFO

International designator: 1998-007A

Object number (NORAD): 25157

Object ID (CCSDS): 25157

Country: UNITED STATES OF AMERICA (US)

Current information (Y/N): Y

RCS size: LARGE

Orbital parameters

Period: 93.481 minutes

Inclination: 108.0221 deg

SMA: 6823.024 km

Apoapsis: 498.512 km

Periapsis: 391.265 km

RAAN: 232.5114 deg

Eccentricy: 0.0078592

Argument of periapsis: 104.2238 deg

Mean anomaly: 256.7703 deg

Mean motion: 15.40413906 rev/day

Mean motion (dot): 0.00025754 rev/day2

B* drag term: 0.00057466 1/REarth

Two-line elements (TLE)

Creation date: May 8, 2025, 3:01 a.m.

Reference frame: TEME

Reference center: EARTH

Epoch: May 7, 2025, 8:50 p.m. UTC

TLE line 0: 0 GFO

TLE line 1: 1 25157U 98007A 25127.86850270 .00025754 00000-0 57466-3 0 9991

TLE line 2: 2 25157 108.0221 232.5114 0078592 104.2238 256.7703 15.40413906463461

Live tracking on map

Real-time ground track for satellite GFO.

In-orbit conjunctions

A list of the most updated potential collisions computed for object GFO.

Target Orbit TCA Probability of collision Miss distance Type
CHOLLIMA-1 R/B SSO 2025-04-30 19:06:09 0.0005046756 686.0 (m) ROCKET BODY

Associated space launch

The US Navy GFO (Geosat Follow On), is a 369 kg minisatellite based on the Techstar platform to carry on the mission of Geosat. It was launched on the 10th February 1998 on a Taurus-2210 from VAFB alongside two Orbcomm satellites, into a 789 × 881 km (779 × 790 km planned) 108 degree inclined orbit.

GFO was lifted into orbit during the mission ‘Taurus 2210 | GFO’, on board a Minotaur-C 2210 space rocket.

The launch took place on Feb. 10, 1998, 1:20 p.m. from Space Launch Complex 576E.

For more information about the launch, click the button.

Launch to space Taurus 2210 | GFO
Taurus 2210 | GFO

Agency: N/A

Status: Launch Successful

Launch date: Feb. 10, 1998, 1:20 p.m. UTC

Rocket: Minotaur-C 2210

Launch pad: Space Launch Complex 576E

Location: Vandenberg SFB, CA, USA

...

Latest news about this satellite

There are no fresh news available about this satellite. Check back as we update our databases every day.


Newsletter sign-up

Weekly statistics, charts and insights to help you stay on top of the space industry.